Regional Weather Roundup
Issued by NWS

Home | Current Version | Previous Version | Graphics & Text | Print | Product List | Glossary On
Versions: 1 2 3 4 5 6 7 8 9 10 11 12 13 14 15 16 17 18 19 20 21 22 23 24 25 26 27 28 29 30 31 32 33 34 35 36 37 38 39 40 41 42 43 44 45 46 47 48 49 50
000
ASUS43 KMKX 260300
RWRWI

WISCONSIN REGIONAL WEATHER ROUNDUP
NATIONAL WEATHER SERVICE MILWAUKEE/SULLIVAN WI
1000 PM CDT WED MAY 25 2016

NOTE: "FAIR" INDICATES FEW OR NO CLOUDS BELOW 12,000 FEET WITH NO
SIGNIFICANT WEATHER AND/OR OBSTRUCTIONS TO VISIBILITY.

WIZ001-002-006>008-014>016-023>028-260400-
NORTHWEST WISCONSIN

CITY           SKY/WX    TMP DP  RH WIND       PRES   REMARKS
SUPERIOR ARPT  CLOUDY    44  43  97 NE7G16    29.90F
ASHLAND        CLOUDY    51  51 100 NE9       29.91S
HAYWARD        PTCLDY    53  52  96 N5        29.87F
SIREN          CLOUDY    58  57  96 E6        29.87S
CUMBERLAND     CLOUDY    59  59 100 NE8       29.86S
RICE LAKE      PTCLDY    61  59  92 N6        29.87F
CHETEK         PTCLDY    62  61  99 N8        29.86S
LADYSMITH      CLOUDY    62  60  94 NW10      29.88R
EAU CLAIRE     FOG       62  62 100 E3        29.85R VSB 1/4
MENOMONIE      CLEAR     65  64  99 CALM      29.85S
NEW RICHMOND   CLEAR     64  63  96 E7        29.84S
OSCEOLA        CLEAR     65  65 100 E5        29.86R
$$

WIZ003>005-009-010-017-018-260400-
NORTH CENTRAL WISCONSIN

CITY           SKY/WX    TMP DP  RH WIND       PRES   REMARKS
MANITOWISH WTR NOT AVBL
ARBOR VITAE    RAIN      62  60  93 E7        29.87F
WOODRUFF       RAIN      62  60  93 E7        29.87F
RHINELANDER    LGT RAIN  61  58  90 SE17      29.88S FOG
EAGLE RIVER    RAIN      60  59  97 E14       29.88F
LAND O LAKES   RAIN      61  60  96 E6G16     29.91F
PHILLIPS       DRIZZLE   62  61  99 SE5       29.84R
TOMAHAWK       HVY RAIN  60  59  96 SE3       29.86R
MEDFORD        CLOUDY    62  62 100 S7        29.86S
MERRILL        NOT AVBL
$$

WIZ029-030-035-036-043>047-260400-
CENTRAL WISCONSIN

CITY           SKY/WX    TMP DP  RH WIND       PRES   REMARKS
WAUSAU         CLOUDY    64 N/A N/A SE5       29.86R
MOSINEE        MOCLDY    63  63 100 S8        29.88R
MARSHFIELD     LGT RAIN  64  61  90 SW5       29.87R
STEVENS POINT  CLOUDY    61  60  97 S9        29.89R
WAUPACA        CLOUDY    64  64  98 SE7       29.90S
WAUTOMA        CLOUDY    62  61  96 E3        29.90S
WISC RAPIDS    MOCLDY    63  61  93 S7        29.89R
CAMP DOUGLAS   NOT AVBL
$$

WIZ011>013-019>022-031-037>040-048>050-260400-
NORTHEAST WISCONSIN

CITY           SKY/WX    TMP DP  RH WIND       PRES   REMARKS
ANTIGO         CLOUDY    57  57  99 SE16      29.88F
SHAWANO        LGT RAIN  61  59  94 E7        29.91S
OCONTO         CLOUDY   N/A N/A N/A SE6       29.91S
STURGEON BAY   NOT AVBL
GREEN BAY      CLOUDY    60  58  92 E7        29.92R
MANITOWOC      NOT AVBL
APPLETON       LGT RAIN  59  59 100 E7        29.89S
CLINTONVILLE   RAIN      59  59 100 SE5       29.90S
OSHKOSH        LGT RAIN  60  58  92 SE7       29.90F FOG
$$

WIZ032>034-041-042-053>061-260400-
SOUTHWEST WISCONSIN

CITY           SKY/WX    TMP DP  RH WIND       PRES   REMARKS
LA CROSSE      CLEAR     69  64  84 SE6       29.83S
SPARTA         CLEAR     67  66  97 E5        29.87S
VIROQUA        CLEAR     71  61  71 CALM      29.88S
BOSCOBEL       CLEAR     66  63  90 CALM      29.87R
PRAIRIE DU CHI CLEAR     71  60  69 CALM      29.85R
PLATTEVILLE    CLEAR     72  59  64 S8        29.90R
$$

WIZ056-057-062-063-064-067-068-260400-
SOUTH CENTRAL WISCONSIN

CITY           SKY/WX    TMP DP  RH WIND       PRES   REMARKS
REEDSBURG      CLOUDY    67  66  97 CALM      29.88R
BARABOO/DELLS  CLOUDY    68  64  86 CALM      29.88R
LONE ROCK      NOT AVBL
MINERAL POINT  CLEAR     72  59  64 S6        29.89R
MADISON        MOCLDY    70  63  78 S9        29.89R
MIDDLETON      MOCLDY    73  64  73 S8        29.89R
WATERTOWN      PTCLDY    67  67  99 SE9       29.89R
MONROE         CLEAR     68  63  83 S8        29.90R
JANESVILLE     NOT AVBL
$$

WIZ051-052-058>065-066-070>072-260400-
SOUTHEAST WISCONSIN

CITY           SKY/WX    TMP DP  RH WIND       PRES   REMARKS
MILWAUKEE      CLOUDY    56  55  97 E6        29.92F FOG
WAUKESHA       CLOUDY    59  57  94 E3        29.93R FOG
MILWAUKEE/TIMM MOCLDY    55  54  94 NE3       29.93S FOG
RACINE         CLOUDY    60  57  89 SE6       29.94F
BURLINGTON     CLOUDY    65  63  94 SE8       29.92S
KENOSHA        CLOUDY    67  64  90 S8        29.93R
FOND DU LAC    LGT RAIN  62  60  93 NW6       29.92R FOG
SHEBOYGAN      LGT RAIN  56  55  97 N3        29.94R FOG
WEST BEND      CLOUDY    59  57  94 E5        29.93R FOG
JUNEAU         CLOUDY    64  62  94 SE8       29.92R
$$

LSZ147-162-260400-
LAKE SUPERIOR

STATION/POSITION TIME  TEMP    WIND        PRES    WAVE
                       AIR SEA DIR/SP/G            HT/PER
                 (UTC) (F)     (DEG/KT/KT) (MB)    (FT/S)
W MID LAKE BUOY  0150   40 38   40/ 14/ 16 1013.9R   3/ 5
DEVILS ISLAND    0200   44      30/ 15/ 17 1014.5F
SAXON HARBOR     0200   48      30/  8/ 10 1013.5S
$$

LMZ867-665-643>646-260400-
LAKE MICHIGAN

STATION/POSITION TIME  TEMP    WIND        PRES    WAVE
                       AIR SEA DIR/SP/G            HT/PER
                 (UTC) (F)     (DEG/KT/KT) (MB)    (FT/S)
CHAMBERS ISLAND  0240   57      60/  4/  5 1013.2F
N MID LAKE BUOY  0150   50 45  110/  8/ 10 1013.3F   1
NORTHPORT PIER   0200   55     120/  4/  7 1013.2F
SISTER BAY       0204   61     110/ 10/ 14   N/A
ALGOMA LAKESHORE 0217             CALM       N/A
KEWAUNEE LAKESHO 0200          290/  1/  4 1013.0R
SHEBOYGAN LAKESH 0200   52      80/  2/  3 1014.1R
PORT WASHINGTON  0200   55      70/  2/  4 1014.6R
S MID LAKE BUOY  0150   58 51  150/ 14/ 16 1013.4R   1
KENOSHA   LAKESH 0200   62     180/ 10/ 15 1013.2R
$$

TC  - TEMPERATURE IN CELSIUS
VSB - VISIBILITY IN STATUTE MILES
WCI - WIND CHILL INDEX
HX  - HEAT INDEX





USA.gov is the U.S. government's official web portal to all federal, state and local government web resources and services.